St. Charles, IL

12:59 PM CDT on June 23, 2017 (GMT -0500)
Saint Charles County Smartt

Weather History for KSET - June, 2013

Change the Weather History Date:

Thursday, June 13, 2013

  Actual Average (KSTL) Record (KSTL)
Temperature  
Mean Temperature 76 °F -  
Max Temperature 86 °F 85 °F 98 °F (1952)
Min Temperature 69 °F 66 °F 50 °F (1985)
Cooling Degree Days 12    
Growing Degree Days 26 (Base 50)    
Moisture  
Dew Point 63 °F    
Average Humidity 65    
Maximum Humidity 84    
Minimum Humidity 37    
Precipitation  
Precipitation 0.00 in - - ()
Sea Level Pressure  
Sea Level Pressure 29.91 in    
Wind  
Wind Speed 12 mph (NW)    
Max Wind Speed 20 mph    
Max Gust Speed 28 mph    
Visibility 10 miles    
Events      
Averages and records for this station are not official NWS values.
T = Trace of Precipitation, MM = Missing Value Source: NWS Daily Summary

Daily Weather History Graph

Daily Weather History Graph

Search for Another Location

Airport or City:

Trip Planner

Search our weather history database for the weather conditions in past years. The results will help you decide how hot, cold, wet, or windy it might be!

Date:

Astronomy

Jun. 13, 2013 Rise Set
Actual Time 5:35 AM CDT 8:28 PM CDT
Civil Twilight 5:03 AM CDT 9:00 PM CDT
Nautical Twilight 4:23 AM CDT 9:40 PM CDT
Astronomical Twilight 3:37 AM CDT 10:26 PM CDT
Moon 10:10 AM CDT (6/13) 11:37 PM CDT (6/13)
Length of Visible Light 15h 56m
Length of Day
14h 52m
Waxing Crescent, 22% of the Moon is Illuminated
Jun 13
Waxing Crescent
Jun 16
First Quarter
Jun 23
Full
Jun 29
Last Quarter
Jul 8
New

Hourly Weather History & Observations

Time (CDT) Temp. Heat Index Dew Point Humidity Pressure Visibility Wind Dir Wind Speed Gust Speed Precip Events Conditions
12:54 AM 82.9 °F 87.0 °F 70.0 °F 65% 29.73 in 10.0 mi West 15.0 mph - N/A   Clear
1:54 AM 81.0 °F 83.0 °F 66.0 °F 60% 29.75 in 10.0 mi WNW 17.3 mph 24.2 mph N/A   Partly Cloudy
2:54 AM 78.1 °F - 64.0 °F 62% 29.76 in 10.0 mi West 16.1 mph - N/A   Partly Cloudy
3:54 AM 75.0 °F - 61.0 °F 62% 29.78 in 10.0 mi WNW 16.1 mph 23.0 mph N/A   Clear
4:54 AM 72.0 °F - 60.1 °F 66% 29.80 in 10.0 mi WNW 15.0 mph - N/A   Partly Cloudy
5:29 AM 71.6 °F - 60.8 °F 69% 29.84 in 10.0 mi WNW 13.8 mph - N/A   Overcast
5:54 AM 70.0 °F - 61.0 °F 73% 29.83 in 10.0 mi WNW 19.6 mph 27.6 mph N/A   Overcast
6:54 AM 69.1 °F - 62.1 °F 78% 29.86 in 10.0 mi WNW 15.0 mph - N/A   Overcast
7:54 AM 70.0 °F - 63.0 °F 78% 29.89 in 10.0 mi NW 11.5 mph - N/A   Overcast
8:54 AM 70.0 °F - 64.9 °F 84% 29.92 in 7.0 mi NW 8.1 mph - N/A   Overcast
9:54 AM 71.1 °F - 64.9 °F 81% 29.94 in 10.0 mi NNW 11.5 mph - N/A   Overcast
10:39 AM 73.4 °F - 66.2 °F 78% 29.96 in 10.0 mi NNW 5.8 mph - N/A   Overcast
10:54 AM 73.0 °F - 66.0 °F 79% 29.95 in 10.0 mi NNW 8.1 mph - N/A   Overcast
11:10 AM 73.4 °F - 64.4 °F 73% 29.97 in 10.0 mi NNW 10.4 mph - N/A   Overcast
11:54 AM 75.0 °F - 66.0 °F 73% 29.97 in 10.0 mi NNW 9.2 mph - N/A   Overcast
12:11 PM 75.2 °F - 66.2 °F 73% 29.98 in 10.0 mi NNW 8.1 mph - N/A   Overcast
12:54 PM 79.0 °F - 66.0 °F 64% 29.96 in 10.0 mi NW 8.1 mph - N/A   Scattered Clouds
1:54 PM 82.9 °F 84.4 °F 64.0 °F 53% 29.97 in 10.0 mi NNW 9.2 mph - N/A   Partly Cloudy
2:54 PM 84.0 °F 84.4 °F 61.0 °F 46% 29.96 in 10.0 mi North 10.4 mph - N/A   Partly Cloudy
3:54 PM 84.0 °F 84.0 °F 60.1 °F 44% 29.95 in 10.0 mi North 6.9 mph - N/A   Scattered Clouds
4:54 PM 84.9 °F 83.9 °F 57.0 °F 38% 29.95 in 10.0 mi NNW 9.2 mph - N/A   Clear
5:54 PM 84.9 °F 83.7 °F 55.9 °F 37% 29.96 in 10.0 mi NNW 9.2 mph - N/A   Clear
6:54 PM 82.0 °F 82.0 °F 57.9 °F 44% 29.97 in 10.0 mi NW 6.9 mph - N/A   Clear
7:54 PM 77.0 °F - 60.1 °F 56% 29.98 in 10.0 mi NNW 5.8 mph - N/A   Clear
8:54 PM 73.0 °F - 61.0 °F 66% 29.98 in 10.0 mi North 3.5 mph - N/A   Clear
9:54 PM 72.0 °F - 61.0 °F 68% 29.96 in 10.0 mi Calm Calm - N/A   Clear
10:54 PM 69.1 °F - 60.1 °F 73% 29.95 in 10.0 mi Calm Calm - N/A   Clear
11:54 PM 69.1 °F - 60.1 °F 73% 29.94 in 10.0 mi Calm Calm - N/A   Clear